GFSSGP_sfc_dewp_168.txt.gz
Dewpoint
71 71 70 67 52 41 42 47 51 53 56 59 60 58 59 62 60 58 71 71 72 73 74 73 76 77 77 77 77 77 77 76 76 77 76 76 75 75 75 75 74 74 74 74 74 74 74 74 74
68 67 66 57 38 34 43 47 51 56 59 60 59 59 58 62 65 68 69 71 72 73 74 74 76 77 77 78 78 78 77 76 76 76 76 76 76 75 74 74 74 73 73 73 73 73 73 74 74
68 66 58 45 38 40 45 50 53 57 58 58 59 61 62 63 65 68 71 71 72 72 73 73 77 77 76 77 77 77 77 76 76 75 74 73 73 73 74 74 73 74 74 74 74 74 73 73 72
66 64 55 41 40 47 48 52 54 55 57 58 59 60 64 67 66 68 70 70 71 71 71 74 77 76 75 76 76 76 76 76 76 74 73 76 75 75 75 75 74 74 74 74 73 72 72 72 72
63 54 41 40 45 49 52 54 55 54 57 58 58 60 64 67 68 69 68 68 66 68 73 75 76 75 76 76 76 76 76 76 75 73 74 76 75 74 74 74 74 74 73 73 72 72 72 72 72
55 50 38 36 44 50 53 55 55 57 58 59 60 61 65 68 68 68 70 69 69 70 74 74 75 76 76 76 76 76 75 75 74 73 74 74 74 75 75 75 74 74 74 73 73 72 72 72 72
50 44 41 38 44 48 52 55 54 56 57 58 60 61 66 67 68 68 69 68 64 70 73 74 75 75 75 75 76 76 76 75 75 75 75 74 74 75 75 74 74 74 73 73 72 72 72 72 71
49 44 39 36 36 47 53 54 56 56 59 60 61 61 63 66 68 68 67 67 68 70 71 73 75 75 74 75 77 76 76 74 74 74 74 74 73 73 73 74 74 72 72 72 71 71 72 72 72
49 40 37 38 35 48 54 53 57 58 59 62 61 62 65 66 67 65 65 65 67 69 70 72 73 75 75 72 73 75 76 75 75 74 74 72 65 66 68 71 72 72 72 72 73 74 74 75 75
40 36 43 45 45 50 53 53 56 57 59 61 63 65 66 66 65 63 62 63 64 64 68 70 70 71 70 71 74 72 71 70 71 72 73 70 71 72 70 72 73 73 73 74 73 73 74 74 65
40 39 46 48 47 51 52 54 55 54 56 61 62 64 65 65 64 62 61 62 63 63 65 67 69 68 66 70 70 70 70 70 72 74 73 74 74 73 70 70 70 72 72 68 69 70 66 67 67
39 47 50 51 48 48 49 53 53 54 57 61 63 63 65 65 63 62 62 63 63 62 64 63 66 68 66 67 68 70 69 69 69 72 74 74 69 71 72 70 71 74 71 71 72 69 71 69 69
45 49 51 48 46 48 50 51 55 57 60 62 63 63 63 64 64 63 62 62 63 63 64 63 66 70 69 69 69 69 67 68 69 71 74 73 72 73 72 71 71 71 71 71 71 71 70 70 69
47 49 48 44 47 47 48 52 51 59 61 62 62 63 63 62 63 64 63 62 62 63 63 63 65 68 68 68 69 69 67 68 69 70 72 74 74 78 74 73 72 70 69 68 69 71 71 68 63
48 47 46 43 45 47 44 44 51 59 61 62 61 62 62 63 63 63 64 64 62 63 63 63 65 66 68 69 69 68 65 64 66 67 71 73 74 75 77 77 77 71 73 74 73 72 70 67 65
44 41 38 45 47 48 48 42 54 57 58 60 61 62 62 63 63 64 64 65 65 63 64 65 62 62 67 67 68 66 65 64 64 64 66 72 74 74 76 70 72 71 74 71 70 67 67 68 68
40 30 35 44 46 47 47 41 53 55 54 55 58 60 60 61 63 64 64 64 65 65 64 66 66 64 65 68 67 67 68 65 63 63 63 70 73 72 73 70 73 77 75 70 70 68 71 68 66
29 31 33 38 45 45 45 43 50 54 53 53 54 56 58 59 61 63 64 65 65 65 64 66 66 68 69 68 69 66 64 64 62 62 63 71 74 75 77 70 73 76 75 70 71 71 70 69 65
29 31 30 35 44 43 38 41 49 52 51 53 54 55 55 56 58 61 63 65 65 67 68 68 67 69 68 66 64 63 61 62 62 63 68 72 73 74 75 71 71 72 71 71 72 70 71 63 65
30 31 30 33 39 41 37 36 42 50 50 48 52 55 54 54 56 59 63 63 65 66 69 70 70 71 70 67 67 65 64 62 63 66 70 74 74 75 74 75 71 71 67 70 71 72 65 64 67
28 27 27 25 28 35 36 38 39 46 51 49 49 51 54 54 55 58 62 64 63 65 67 69 71 72 72 71 68 68 67 66 65 65 66 69 74 74 75 74 73 72 70 64 71 71 71 60 66
25 27 26 22 24 22 37 29 41 40 48 50 48 49 51 54 56 58 60 62 63 64 65 68 70 72 72 72 71 72 64 62 60 65 67 71 74 74 74 75 74 73 67 70 70 70 71 72 63
26 23 23 20 22 28 35 28 42 41 44 48 47 47 49 52 55 56 58 61 62 62 63 67 71 71 71 72 71 67 68 63 63 65 71 74 75 74 74 74 74 73 71 71 73 73 73 69 69
26 26 27 26 22 29 31 28 32 38 42 42 46 46 47 50 53 56 58 61 62 63 63 65 70 72 72 71 71 71 71 69 66 69 69 70 69 69 74 74 74 75 74 74 73 74 74 73 71
25 24 24 23 24 24 34 30 28 27 39 39 42 46 47 49 52 55 58 60 63 63 64 65 69 72 72 71 70 71 71 72 72 72 70 71 68 67 73 75 75 73 75 73 73 73 73 72 70
22 22 22 26 21 22 34 27 28 29 33 36 41 42 45 47 50 53 55 60 62 63 65 65 68 71 72 71 72 72 72 71 69 72 70 69 69 70 75 74 74 72 73 70 73 70 69 71 69
21 21 20 20 26 20 22 26 28 29 28 32 39 41 43 47 49 53 54 58 61 63 64 65 68 70 72 71 72 74 73 73 71 75 74 71 78 72 74 72 71 71 71 71 72 68 68 71 71
20 22 19 18 27 23 22 25 23 30 33 40 42 42 46 48 50 52 56 58 60 61 63 65 66 69 71 71 72 73 74 74 74 75 75 75 74 74 72 71 70 69 69 69 70 70 71 71 73
17 20 21 17 21 22 21 21 29 30 34 42 43 45 48 50 50 52 54 58 61 60 62 64 66 68 71 72 73 74 73 74 75 74 74 73 73 72 71 70 70 69 69 69 70 70 67 66 66
15 21 22 21 31 24 24 21 23 29 36 42 41 47 49 50 51 54 55 57 60 63 62 63 66 68 70 72 73 73 73 74 73 73 73 71 71 70 70 69 69 69 69 68 67 65 64 63 62

GFSSGP_sfc_dewp_171.txt.gz
Dewpoint
72 71 70 65 60 45 41 47 49 53 54 57 58 57 60 61 58 57 71 72 72 72 73 74 76 77 76 76 77 76 76 75 76 76 76 75 76 76 75 74 74 74 75 75 74 73 74 74 74
67 67 66 60 45 35 40 44 49 55 57 58 58 59 60 62 66 68 69 72 73 73 73 74 76 77 76 76 76 77 76 76 76 76 76 76 75 74 75 74 73 74 73 73 73 74 74 74 74
69 65 61 44 38 39 41 46 50 54 57 57 58 60 62 63 66 68 71 71 72 73 74 73 77 77 76 77 77 76 76 76 75 75 75 74 73 75 74 73 75 75 74 74 74 73 73 73 73
65 64 59 38 39 43 45 47 48 50 52 58 58 61 65 67 66 69 70 72 72 72 71 75 76 76 76 76 76 76 76 75 74 74 74 75 75 75 75 75 75 74 74 74 73 72 72 72 72
63 58 44 37 40 45 48 50 53 51 55 57 58 61 65 67 69 69 68 70 70 72 72 74 76 76 76 76 76 76 76 74 73 75 75 75 75 75 74 74 74 74 73 73 73 72 71 71 71
57 48 35 35 40 44 49 50 55 54 56 57 59 62 65 68 66 66 65 65 65 70 74 72 75 76 76 76 76 76 75 73 73 75 75 74 75 75 75 74 74 73 73 73 72 72 71 71 71
55 42 37 36 39 43 48 50 52 56 57 57 60 61 66 67 67 66 66 66 67 71 74 74 75 74 76 76 76 76 75 75 75 74 74 74 75 74 74 74 74 73 72 72 71 71 71 70 70
45 43 34 33 35 43 48 49 54 57 57 59 61 61 63 66 66 65 64 64 66 70 72 74 74 75 73 73 75 75 75 75 75 75 73 74 74 74 73 74 73 72 71 71 71 71 71 71 72
44 37 36 34 36 44 48 49 53 56 59 60 60 62 65 67 65 63 64 65 67 69 71 74 73 74 73 72 73 75 74 74 73 72 73 72 66 68 69 72 72 71 71 72 73 74 74 75 76
39 35 37 36 40 44 46 49 53 55 57 61 63 64 65 65 65 63 61 61 63 65 69 69 71 71 69 66 74 71 71 72 70 71 72 69 69 69 68 71 74 74 74 75 75 74 75 75 66
36 36 36 38 42 43 45 49 51 50 56 60 62 64 64 64 64 63 62 62 61 62 61 65 69 71 68 69 73 74 71 70 71 75 75 73 72 72 72 73 73 74 74 72 72 71 70 65 65
37 39 38 38 41 42 43 47 49 52 55 60 63 64 64 63 62 62 61 62 61 61 61 63 65 67 68 69 73 71 67 69 72 72 75 73 75 70 69 71 74 73 72 69 71 71 70 68 68
39 39 35 36 39 43 45 47 51 55 59 60 62 63 63 63 63 63 62 64 63 62 62 62 67 71 69 72 72 71 66 69 68 70 73 72 73 75 74 71 70 69 68 71 73 72 71 71 69
40 41 38 38 41 43 44 48 50 56 60 61 62 62 62 63 62 62 62 62 63 63 65 63 66 69 67 69 71 70 67 68 68 69 71 73 73 78 76 76 70 73 70 67 68 71 70 68 65
41 40 40 41 40 40 41 41 49 56 59 60 62 62 62 62 62 63 62 63 64 64 63 62 65 66 68 70 69 69 65 65 67 68 71 72 74 74 75 70 70 72 74 74 73 71 71 69 64
37 37 35 41 40 41 43 40 50 55 57 58 60 62 62 63 62 64 64 64 62 63 64 64 61 64 67 69 70 67 66 65 65 65 65 68 71 73 74 69 71 76 72 70 68 66 66 67 65
37 39 36 36 40 40 42 40 47 51 52 56 58 59 60 61 63 64 64 64 64 63 65 65 65 63 65 69 68 68 68 66 63 62 61 67 71 72 72 68 69 74 70 69 69 67 67 65 64
40 38 29 33 37 39 38 40 46 47 47 50 53 56 57 58 59 62 64 64 65 64 64 67 66 68 69 67 69 66 64 63 62 61 61 67 70 73 73 69 71 74 69 69 68 71 67 66 63
29 30 28 32 35 36 36 41 45 47 45 46 49 53 55 56 59 61 62 62 64 65 65 67 68 73 69 67 65 64 61 61 61 62 65 68 71 72 74 70 69 69 70 70 73 70 71 64 63
27 27 27 28 34 36 33 33 43 46 45 45 46 49 50 52 56 60 62 63 63 65 66 67 68 71 71 68 70 66 65 62 62 63 68 70 72 73 73 75 72 70 67 71 72 73 67 61 64
25 26 27 27 26 29 30 31 37 44 44 42 45 49 49 49 53 58 61 63 63 65 67 69 72 72 72 72 69 69 69 68 65 64 64 67 71 73 74 74 75 75 72 63 71 71 72 61 62
24 24 25 23 23 23 28 29 35 39 42 42 42 44 48 50 52 57 59 61 62 63 66 69 72 74 73 75 72 75 67 65 62 63 63 67 71 72 73 74 75 75 72 74 70 70 72 74 67
25 24 24 24 22 23 27 27 32 36 40 40 40 42 43 50 51 53 56 60 61 62 63 67 73 74 75 75 75 70 71 65 63 62 73 73 75 73 71 73 75 76 73 75 74 75 75 73 68
26 25 25 24 21 19 26 24 31 30 37 40 41 41 43 46 50 53 56 58 60 60 62 65 72 75 74 73 73 74 75 72 65 67 66 66 66 67 73 73 75 76 75 76 75 75 76 74 74
27 25 23 22 19 20 26 24 30 31 32 37 41 40 42 45 48 51 55 57 59 59 60 62 71 73 72 72 72 72 73 73 72 72 69 72 66 66 71 75 76 76 77 75 75 75 74 74 75
24 23 20 26 19 21 30 27 28 29 32 33 37 41 40 42 45 49 52 56 58 59 61 62 69 73 72 71 73 74 75 69 68 72 70 69 67 70 74 74 74 74 74 73 73 70 70 75 75
24 24 21 22 23 23 26 28 26 29 27 30 32 37 41 42 44 48 51 54 57 60 61 62 68 72 72 71 74 76 75 75 72 75 76 71 78 71 74 73 75 73 72 72 74 70 72 72 72
22 21 20 21 26 24 23 26 24 31 28 30 35 34 40 43 43 46 50 54 56 58 60 62 64 70 71 71 73 74 74 75 75 75 75 76 77 75 75 74 72 71 72 71 72 70 72 71 69
15 19 20 19 20 22 21 22 29 31 33 37 39 38 39 42 42 45 48 52 56 56 58 61 63 68 71 74 75 76 73 75 75 75 76 76 75 75 73 72 72 71 71 71 71 71 69 68 67
17 22 22 21 30 21 23 21 21 29 30 36 39 42 41 43 41 45 49 53 57 59 58 60 64 67 72 73 74 74 74 74 74 76 75 73 73 72 72 72 72 71 69 69 66 64 62 61 61

GFSSGP_sfc_dewp_174.txt.gz
Dewpoint
72 71 72 68 62 57 50 56 57 53 55 58 59 60 60 61 59 56 71 72 72 72 74 75 77 77 76 77 77 77 77 77 77 77 77 77 77 76 75 76 75 75 75 74 74 74 74 74 74
65 69 67 62 55 45 44 51 53 54 56 58 60 60 59 62 66 68 69 72 73 73 74 74 76 77 76 77 77 77 77 76 76 77 76 76 76 76 75 73 74 75 74 74 73 74 74 74 74
67 67 61 59 44 39 41 46 50 53 54 57 59 61 61 63 67 68 71 72 72 72 74 75 76 76 76 76 76 76 76 76 76 76 75 75 76 76 74 75 75 75 75 74 74 73 73 72 72
66 64 62 43 37 43 43 45 46 54 55 58 59 61 65 66 66 69 71 72 72 72 72 75 76 77 76 76 76 76 76 75 75 75 75 75 76 76 75 75 74 74 74 74 73 72 72 72 72
63 60 49 37 38 43 45 49 51 53 56 59 61 63 65 67 68 69 70 72 71 72 74 75 76 76 76 76 76 76 76 75 76 75 75 75 76 75 74 74 74 74 73 73 72 72 71 71 71
57 56 50 34 39 43 46 52 55 54 58 60 62 63 65 68 67 69 70 71 69 71 74 73 75 76 76 76 76 76 75 74 76 76 74 75 76 75 75 74 73 73 72 72 71 71 71 71 71
53 51 43 36 38 44 45 52 52 54 57 58 61 62 66 65 65 65 67 69 72 72 74 74 75 75 76 76 76 76 75 74 74 74 74 75 75 74 74 74 74 72 72 72 71 71 72 72 73
56 47 34 33 38 42 45 54 54 56 58 61 62 61 63 66 64 64 66 68 70 70 72 74 74 75 75 74 75 76 76 75 75 74 74 75 75 74 74 75 74 72 72 72 73 72 74 74 75
42 38 34 35 39 43 45 50 54 56 58 59 61 63 65 65 63 62 62 65 68 70 72 74 73 75 74 73 73 75 74 75 75 74 73 75 72 72 72 74 73 72 73 72 74 75 76 77 77
42 34 34 37 41 43 45 47 53 58 59 60 61 64 65 63 61 61 62 63 65 67 69 71 72 72 72 65 75 75 72 74 72 74 74 74 73 73 70 72 75 74 74 75 77 76 76 76 70
38 32 36 39 40 42 45 47 49 55 58 61 61 63 64 63 62 60 60 60 61 63 66 66 70 73 70 73 75 75 73 74 75 76 76 77 75 72 74 74 74 75 75 72 74 69 67 71 70
32 33 34 37 40 41 44 45 51 55 58 61 62 64 63 63 62 61 61 59 60 61 61 64 68 71 72 73 73 72 74 72 73 75 77 78 76 76 76 74 74 76 74 75 73 72 70 72 71
32 29 34 37 39 42 45 48 52 55 59 61 62 62 62 62 62 63 62 61 61 61 63 66 71 73 73 74 70 70 72 71 73 77 78 77 76 76 76 76 76 77 73 74 74 73 74 72 72
37 32 33 36 40 41 45 48 54 56 59 61 62 61 61 61 61 62 62 62 61 63 63 64 70 72 71 75 75 75 74 74 75 76 76 77 78 78 77 75 75 75 73 74 74 75 74 74 70
42 36 38 39 39 41 43 44 52 57 59 61 61 61 61 61 61 62 62 64 64 63 63 67 69 68 72 75 74 73 73 70 73 74 76 76 77 77 76 75 75 76 77 77 78 76 75 74 71
47 47 41 37 39 39 38 43 51 56 57 59 60 61 61 61 61 63 63 64 65 64 67 68 63 66 70 73 74 73 74 72 73 72 73 74 75 77 77 75 72 76 75 75 74 73 72 71 70
52 48 45 41 37 41 38 41 49 52 54 57 59 60 61 61 63 65 63 63 64 67 68 69 69 67 70 73 73 74 75 73 70 71 70 75 74 76 76 74 75 76 76 76 73 74 74 71 70
43 43 42 42 35 39 34 38 45 49 50 54 56 58 58 59 61 64 64 63 63 65 68 70 69 72 73 71 74 73 72 72 71 71 71 74 75 76 77 74 74 77 75 72 72 74 74 72 71
40 37 38 37 32 36 43 40 43 45 44 48 52 56 56 57 60 62 63 64 63 65 67 70 71 74 74 71 71 70 68 69 70 71 72 72 75 76 78 75 75 76 73 75 76 75 74 72 72
38 37 33 33 30 35 36 41 42 42 42 44 47 52 54 55 58 60 64 65 65 66 68 70 71 74 73 72 74 73 74 72 74 73 75 75 75 77 76 77 76 77 74 75 74 75 73 71 71
30 27 27 26 26 28 30 37 42 42 42 42 43 47 49 52 57 61 63 64 64 66 68 69 71 73 73 74 73 75 75 74 70 71 70 71 74 77 78 77 77 77 77 73 75 75 74 70 71
26 29 27 23 21 22 27 27 40 42 40 42 43 44 45 50 56 61 62 64 64 65 68 70 71 72 73 74 72 74 69 69 68 73 72 74 74 75 76 77 77 78 77 77 75 75 75 75 70
25 26 26 23 22 24 26 31 33 40 40 39 40 44 45 48 52 56 59 63 64 65 67 70 74 74 74 74 74 71 74 70 70 70 73 77 78 77 75 75 76 77 77 77 77 76 76 75 73
25 26 24 22 21 19 22 29 34 34 39 39 40 40 45 47 49 55 59 62 63 63 65 69 74 75 75 76 75 75 75 73 70 72 74 73 73 76 76 76 75 74 77 77 77 77 76 76 74
24 25 25 24 19 19 23 29 37 35 36 38 39 41 42 48 49 53 58 60 62 62 64 67 72 74 75 74 75 75 75 75 76 75 72 75 72 71 74 74 71 73 76 76 77 76 75 73 72
24 24 24 26 19 18 29 27 31 32 32 36 40 40 42 42 47 50 55 59 61 62 64 65 72 73 74 74 74 75 76 74 72 73 72 72 74 74 77 76 75 75 76 75 76 75 74 73 72
25 26 24 22 23 19 26 28 33 31 31 32 36 40 42 44 45 50 53 57 60 61 63 64 72 74 74 74 74 75 75 75 73 75 77 74 78 74 77 76 75 74 74 75 74 74 72 72 72
23 25 22 23 28 29 25 30 27 36 31 30 32 40 44 46 45 48 51 57 59 61 63 64 69 72 74 74 74 74 75 76 76 76 77 77 78 78 77 75 74 73 73 73 73 72 72 72 71
19 22 24 20 22 24 29 29 35 39 36 34 33 34 45 45 45 48 50 56 58 59 61 63 66 72 73 74 75 76 76 77 77 77 77 77 78 76 74 75 73 71 72 72 72 71 69 67 67
19 22 22 24 33 26 28 24 24 35 31 35 37 44 40 45 44 48 50 55 58 59 61 63 66 70 73 75 77 77 76 77 77 77 76 76 75 74 73 72 72 72 70 69 67 66 65 63 63

GFSSGP_sfc_dewp_180.txt.gz
Dewpoint
75 73 73 72 59 59 53 55 60 58 58 61 61 59 61 62 59 56 70 72 72 72 74 76 77 76 76 76 76 76 76 76 76 76 76 76 75 76 75 75 75 74 74 74 73 74 74 73 73
73 72 73 69 56 52 53 55 58 58 60 60 60 61 61 61 65 68 68 72 72 72 74 76 77 77 75 76 75 76 76 76 76 75 75 74 75 75 75 75 74 74 73 73 73 73 73 73 73
71 70 66 63 55 50 53 57 58 58 59 60 61 62 61 63 66 68 70 72 72 72 74 74 76 76 76 76 76 76 76 76 74 74 75 74 74 73 73 73 73 73 74 74 73 72 72 72 72
64 69 67 59 49 49 52 58 59 59 60 61 61 61 65 68 67 69 71 72 71 73 75 76 76 76 76 76 76 75 74 73 73 75 75 74 75 75 74 74 74 74 73 72 71 71 71 72 72
62 67 59 55 50 53 56 58 59 59 60 60 61 61 63 68 70 70 71 70 71 72 74 75 77 76 76 76 75 73 75 75 75 75 75 75 75 75 74 74 74 73 72 72 71 72 72 72 73
60 61 54 46 52 57 59 61 61 61 61 61 60 61 65 69 69 70 70 71 71 73 74 75 76 76 76 76 75 74 76 75 75 75 75 75 74 75 74 73 73 73 73 73 72 72 72 73 73
59 52 49 50 55 56 59 60 59 60 60 60 61 60 66 68 69 70 70 71 72 73 73 74 74 75 75 75 74 73 75 75 75 74 75 75 74 73 73 73 73 73 73 73 73 72 73 73 74
55 51 46 50 52 54 58 59 61 60 59 62 63 61 63 66 69 69 70 71 71 72 73 73 73 74 74 74 75 74 74 74 74 73 74 74 74 73 73 75 75 74 73 73 73 73 73 74 74
52 48 46 50 51 54 58 58 60 62 61 61 62 62 64 68 67 68 69 70 70 71 71 72 72 73 73 73 75 76 75 74 73 72 73 74 74 72 73 74 74 74 72 72 72 73 71 70 71
48 46 45 49 55 56 58 59 60 61 61 62 62 64 66 65 66 66 67 66 67 68 70 71 71 72 72 72 72 72 73 72 72 72 72 72 72 72 72 74 75 74 73 74 75 74 73 70 70
46 38 44 52 54 57 58 58 60 61 60 62 61 63 63 64 64 65 66 66 67 68 70 70 71 70 69 71 72 72 72 72 72 68 68 72 73 72 73 72 68 69 73 74 74 72 66 68 67
38 40 44 46 54 55 56 59 60 61 61 63 62 62 62 62 63 63 65 65 66 67 67 69 70 70 70 71 70 71 72 70 70 72 72 73 72 72 71 70 71 72 73 72 72 70 67 68 69
37 39 46 54 57 57 59 59 60 62 63 63 62 61 61 61 60 62 63 63 64 64 64 65 68 69 66 66 67 69 70 70 69 70 73 73 72 71 72 72 72 71 73 71 72 69 68 68 69
38 40 46 53 56 59 59 60 60 62 63 62 62 61 61 61 60 61 60 60 60 61 62 64 69 69 64 65 65 67 69 70 71 71 73 73 73 72 72 70 66 64 72 72 71 71 69 70 71
45 37 42 52 53 55 59 58 59 62 62 62 61 61 61 60 60 60 59 58 59 60 62 64 69 69 69 69 68 69 70 70 68 72 73 71 71 72 73 70 66 64 70 71 70 70 72 71 70
44 45 37 40 52 54 54 56 60 61 61 62 62 62 62 62 62 62 60 57 58 59 61 65 68 67 67 71 70 69 69 69 67 68 70 71 71 72 72 70 68 67 64 68 71 70 70 68 67
46 41 42 41 46 52 53 56 59 61 60 59 58 61 61 62 62 62 62 60 59 59 62 68 67 66 67 69 68 67 70 69 66 66 66 70 70 72 71 71 71 70 68 71 71 70 69 68 66
40 40 43 43 44 49 51 53 59 60 59 59 59 60 60 60 61 62 62 62 62 63 65 67 65 65 68 68 67 69 69 68 68 67 66 68 69 69 71 72 72 72 71 71 69 68 70 69 68
40 40 43 45 45 46 47 54 57 58 59 59 59 59 60 60 62 62 63 63 63 64 65 66 65 64 67 67 66 66 65 65 66 66 68 67 66 69 72 73 71 72 71 70 70 70 68 68 69
39 41 41 43 44 44 50 53 55 57 59 59 59 59 60 60 61 62 63 62 62 64 65 65 66 65 67 67 67 67 66 67 67 68 68 68 68 68 71 72 71 73 71 71 71 69 68 69 68
39 40 39 39 41 42 46 47 52 55 57 58 59 59 60 60 60 62 63 62 62 62 63 65 66 65 67 68 68 68 70 68 67 65 65 65 67 69 70 72 72 73 72 71 71 70 69 68 69
38 40 40 39 40 36 41 38 46 49 53 56 58 58 59 60 61 62 63 62 62 62 63 64 66 66 67 68 68 67 66 67 66 65 65 66 69 69 69 72 69 69 71 71 72 72 70 69 67
34 39 39 39 37 35 40 39 40 43 47 51 55 57 57 59 60 62 62 63 63 63 63 66 66 66 68 67 68 68 67 67 67 68 68 67 68 70 72 71 64 64 68 67 71 71 70 68 67
37 35 35 34 32 26 38 38 39 41 41 48 53 55 55 57 60 61 62 63 63 63 64 66 67 67 68 70 68 67 67 68 69 68 67 69 69 71 72 66 66 66 66 66 70 71 69 68 68
34 31 26 23 19 20 24 33 39 42 41 46 50 53 53 56 60 61 62 62 63 63 64 66 66 66 68 69 69 69 67 67 67 67 67 67 68 69 71 66 67 68 67 69 71 69 68 68 67
25 25 26 22 22 21 25 23 27 43 42 44 49 50 50 56 57 59 61 62 63 63 64 65 66 66 67 68 70 69 69 70 71 71 71 70 69 70 71 71 70 70 70 70 69 69 68 68 67
26 25 27 25 30 24 25 30 39 43 41 42 45 45 48 55 57 59 60 60 62 63 64 66 67 66 68 69 70 72 71 71 71 71 71 70 69 70 72 71 71 70 70 69 68 67 64 63 62
25 26 22 24 25 24 25 29 32 41 40 41 44 44 47 53 56 59 60 61 61 62 62 66 68 69 70 71 71 71 73 73 72 72 71 73 73 73 72 71 70 70 68 65 64 61 61 59 59
24 26 23 24 26 22 22 25 35 41 41 40 44 44 46 49 52 56 58 59 61 62 62 63 67 69 71 71 72 72 72 73 73 72 71 72 72 71 71 69 67 64 61 60 58 57 57 56 56
23 23 23 24 21 25 25 25 30 36 37 41 42 44 47 48 49 54 56 58 60 60 61 62 67 69 70 71 71 72 72 72 72 72 73 73 71 71 68 65 61 59 56 55 54 54 54 54 55

GFSSGP_sfc_dewp_183.txt.gz
Dewpoint
74 73 72 71 58 55 53 56 61 58 57 62 61 57 59 62 59 55 70 71 72 72 73 75 76 76 75 76 76 76 75 76 75 75 75 76 76 75 75 75 75 75 74 73 74 74 74 73 73
73 72 73 67 55 50 52 55 56 58 61 62 61 61 60 61 65 67 68 71 72 72 74 75 77 76 76 76 76 76 76 75 75 74 75 76 76 75 74 74 74 73 73 73 73 73 73 73 73
72 70 66 62 53 50 53 56 57 59 60 60 61 62 61 62 66 67 70 72 72 73 74 75 75 75 75 76 76 76 75 74 75 75 73 73 74 73 74 74 73 73 73 73 73 72 72 72 72
68 68 67 58 51 51 56 57 58 59 60 61 61 60 65 68 66 69 71 71 72 73 74 75 76 75 75 76 76 75 74 73 75 74 74 75 74 73 73 74 75 74 73 72 72 72 72 72 73
64 67 58 50 52 54 58 59 59 59 60 60 61 61 63 68 69 71 71 71 72 72 73 75 76 76 75 75 73 73 74 75 75 73 74 75 75 74 74 74 73 73 72 72 72 72 72 72 73
60 62 51 50 55 58 59 60 60 60 61 60 60 60 64 69 68 70 70 71 72 73 73 74 75 75 75 75 73 75 75 75 75 75 74 74 74 74 74 73 73 72 72 73 73 73 73 73 73
60 52 50 54 55 56 59 61 59 59 59 59 61 60 65 67 69 69 70 71 72 72 73 73 74 74 75 74 73 75 75 75 74 74 74 73 73 73 73 72 72 72 72 72 72 73 73 73 74
60 50 50 53 54 55 59 60 61 60 59 62 62 60 62 67 69 70 71 71 71 72 73 72 73 73 73 72 72 73 75 74 73 73 73 74 73 72 72 74 74 73 73 73 73 73 74 74 71
54 47 46 51 53 55 59 59 60 62 61 61 62 62 65 68 69 69 70 70 70 71 71 72 72 72 72 73 74 74 74 73 72 72 72 73 74 72 73 74 74 74 73 72 73 73 74 73 70
47 46 45 53 55 57 58 59 60 60 61 61 63 66 67 67 68 68 68 68 68 68 70 70 71 71 71 73 72 71 73 73 71 71 71 71 71 72 72 74 74 74 74 75 75 76 75 74 70
45 41 48 55 56 58 58 59 61 61 60 61 61 64 65 66 66 67 67 68 67 68 70 70 70 71 70 71 71 71 71 72 71 69 68 71 72 72 72 71 69 68 69 73 74 73 71 67 69
40 44 52 55 58 58 58 60 61 61 61 63 64 64 64 65 65 65 66 66 67 68 69 70 70 70 70 71 70 70 71 70 70 71 70 71 71 71 71 70 71 72 73 71 71 71 70 68 69
39 51 54 57 57 58 59 60 61 61 62 63 63 63 63 63 64 64 66 65 66 67 67 68 70 69 68 69 68 69 69 69 69 69 71 72 71 70 71 72 71 69 71 70 70 71 70 68 68
42 53 56 56 58 60 60 61 61 62 62 61 61 61 62 61 61 62 63 63 64 64 64 65 68 68 64 65 65 68 69 70 70 71 70 72 72 71 71 71 68 64 68 71 72 71 70 70 71
44 48 53 58 59 59 59 58 60 62 62 60 60 61 61 61 61 61 62 62 62 61 62 63 68 68 64 65 65 67 69 70 69 70 71 72 71 71 71 71 69 66 67 67 71 70 70 70 68
43 43 44 50 55 59 54 54 61 62 61 61 61 61 61 61 60 61 61 61 60 60 61 62 68 68 68 70 69 69 68 69 67 67 68 69 71 71 71 70 70 69 66 66 70 70 70 68 67
43 40 40 41 52 55 54 56 61 62 61 61 60 61 60 61 61 61 60 60 59 59 60 62 68 67 67 69 69 67 67 69 67 66 66 67 70 71 71 71 72 72 70 70 70 70 69 68 68
39 39 42 41 45 53 55 56 60 60 60 61 61 62 62 62 62 62 62 60 58 58 60 63 67 66 66 67 67 67 68 68 67 67 67 66 68 70 70 72 72 72 71 70 69 68 69 69 68
40 39 41 44 46 47 51 57 59 60 59 59 58 60 61 61 62 62 62 62 60 58 61 63 66 65 66 67 65 65 65 65 65 65 66 68 68 66 70 72 71 72 70 70 70 69 67 66 68
40 38 41 43 44 45 53 55 58 59 59 59 59 59 60 60 61 62 62 62 62 62 62 64 66 64 65 66 66 65 65 65 65 67 68 67 67 68 68 71 71 71 71 70 70 69 68 68 68
39 39 39 39 42 44 50 50 56 58 59 59 59 59 60 60 60 61 62 63 62 62 64 65 66 65 64 66 66 66 68 68 67 66 65 65 65 67 69 70 71 71 71 70 70 70 68 67 68
36 40 39 40 39 36 44 37 50 54 57 58 59 59 59 60 60 61 62 62 62 62 64 65 65 65 65 67 66 66 65 65 66 65 64 66 68 68 70 69 71 66 70 68 68 71 69 68 66
35 39 40 40 38 36 39 37 39 52 53 55 58 59 60 60 60 61 62 62 62 62 63 64 65 65 66 67 66 66 65 66 66 67 67 67 68 70 71 71 65 63 67 66 67 69 68 68 67
36 38 35 33 34 34 36 37 38 46 49 53 55 58 59 59 60 61 62 63 63 63 63 64 64 65 65 67 67 66 66 66 67 67 68 68 68 69 72 69 65 66 65 66 69 69 68 67 66
35 32 29 28 26 31 32 37 35 43 46 50 52 55 58 59 59 60 62 62 63 62 63 64 65 64 66 67 66 67 66 67 67 67 67 66 66 68 70 68 66 68 67 69 69 68 67 67 65
32 32 29 26 23 21 33 35 37 39 44 46 51 54 56 57 58 60 61 62 62 63 63 64 64 65 66 67 67 68 67 67 67 67 68 69 70 69 70 70 70 70 70 69 68 66 65 63 61
26 28 31 26 25 23 25 26 36 43 42 44 48 52 54 55 58 60 61 62 62 63 63 64 64 65 66 67 67 68 68 68 68 69 70 71 70 70 70 71 70 70 69 67 63 61 60 59 59
26 26 24 24 24 21 24 25 31 42 41 43 46 50 52 53 56 59 61 62 62 63 63 64 65 65 65 66 67 68 69 69 70 70 70 70 70 71 71 70 68 64 63 62 59 57 56 55 56
25 24 24 24 25 22 22 24 30 43 42 42 45 48 50 51 56 57 59 61 62 63 63 64 65 65 66 66 67 68 70 72 71 71 71 71 71 71 70 66 62 59 56 55 54 54 53 55 55
23 24 24 24 22 25 24 23 31 43 42 42 43 46 48 49 55 57 58 59 60 62 62 64 66 67 68 68 69 71 71 71 71 71 71 71 71 70 65 60 56 55 54 53 52 50 52 54 55

GFSSGP_sfc_dewp_186.txt.gz
Dewpoint
74 72 71 71 57 55 53 55 61 58 58 62 60 58 60 62 59 55 69 71 72 72 73 75 76 76 76 76 75 75 75 74 74 75 75 76 75 75 74 75 75 74 74 74 74 74 73 73 73
73 71 73 67 53 50 51 56 58 58 61 62 61 60 60 61 65 67 68 72 72 73 73 74 76 76 76 75 75 76 76 75 74 76 75 75 74 74 74 74 74 73 73 73 74 73 73 73 73
73 72 65 60 52 50 52 55 57 61 61 61 61 62 61 63 66 67 70 72 72 73 74 74 75 75 76 75 76 75 74 74 73 73 74 75 75 75 74 73 73 74 74 73 73 73 73 72 73
71 68 66 54 52 51 55 57 59 59 60 61 61 61 65 68 66 69 71 72 72 73 74 75 75 75 75 76 76 75 73 75 74 74 74 73 72 72 72 74 75 74 73 73 73 73 73 73 73
64 66 55 51 52 56 58 59 59 59 60 60 61 61 63 68 70 70 71 72 72 72 74 74 76 75 75 74 73 72 73 76 73 74 75 75 74 73 74 74 74 73 73 73 73 73 73 73 73
61 62 50 50 55 58 60 60 60 61 61 60 60 61 64 69 68 70 71 72 73 72 73 74 75 75 75 72 74 75 75 75 75 74 74 75 74 74 74 73 72 72 72 72 72 72 72 72 73
59 52 50 53 55 57 59 61 59 60 59 60 61 60 65 67 69 69 70 72 73 73 73 73 74 74 75 72 75 75 75 75 75 74 74 73 73 73 72 72 72 72 72 72 71 72 72 73 73
61 50 53 55 55 55 59 60 60 60 59 61 62 59 62 67 69 70 71 71 72 72 73 73 73 73 73 71 73 75 75 74 73 73 74 74 73 73 73 74 73 73 73 73 72 72 72 73 71
56 46 50 52 54 56 60 59 61 61 61 62 63 62 66 68 69 70 69 70 70 71 71 72 72 73 73 74 73 73 72 72 72 72 73 73 74 73 73 73 75 74 74 74 73 73 75 75 71
49 45 45 53 55 57 59 59 60 60 61 62 64 66 67 67 68 67 67 68 68 70 70 71 71 71 72 74 73 72 73 73 72 72 71 72 72 72 72 74 75 74 72 71 75 75 74 69 70
47 43 45 55 58 59 59 60 61 60 59 61 62 65 66 66 67 65 67 68 68 69 70 70 70 71 70 71 70 71 72 72 72 71 69 70 73 73 73 73 71 71 72 73 73 73 73 69 69
42 47 55 58 59 59 59 61 60 61 61 63 63 65 64 64 65 65 67 67 67 68 70 70 71 70 70 71 70 71 72 71 71 71 72 72 73 71 72 72 72 73 74 73 70 72 72 70 70
46 53 56 58 59 60 61 61 61 61 63 64 63 63 64 63 65 66 67 67 67 68 69 70 70 70 70 70 69 70 70 70 70 70 71 73 73 71 72 73 72 69 67 72 72 72 71 71 70
53 55 57 58 59 61 60 61 60 60 63 63 62 62 62 63 64 64 66 65 66 67 67 68 69 69 68 68 68 68 69 71 71 72 71 72 73 73 73 73 71 69 69 72 72 73 72 71 72
50 55 57 58 59 60 59 57 60 61 61 61 61 62 62 63 63 63 64 64 65 65 65 66 67 69 65 64 65 68 69 70 70 70 72 73 73 73 72 73 71 71 70 68 71 72 71 71 69
45 46 52 54 58 59 52 49 61 62 60 60 60 61 61 61 61 63 63 63 64 64 63 64 67 68 68 68 67 69 70 69 70 68 69 69 70 73 73 73 72 72 71 69 71 72 71 70 69
42 41 39 48 55 57 56 54 61 62 61 60 60 60 61 61 61 61 62 62 62 63 62 63 67 68 68 69 70 69 68 70 70 68 68 69 70 72 73 73 73 74 73 72 72 70 70 70 70
37 38 41 42 49 55 55 54 61 61 61 60 60 60 61 60 60 61 61 61 61 61 62 63 65 68 68 68 69 68 68 69 69 68 68 68 69 70 71 72 73 73 72 72 72 70 70 70 69
39 39 39 43 47 52 53 55 60 61 60 60 61 61 61 61 62 62 61 61 60 60 61 62 64 67 67 67 66 66 65 67 67 67 68 70 70 69 69 73 73 72 72 72 72 70 70 69 70
40 40 40 42 45 46 51 54 59 60 60 60 60 59 61 62 62 63 63 62 61 59 60 61 64 66 66 67 67 66 66 66 67 68 70 70 68 69 70 71 72 73 72 72 72 71 70 69 69
39 37 38 38 43 49 51 49 57 59 60 59 60 59 60 61 61 62 63 63 62 61 60 60 63 66 66 67 67 67 68 68 68 68 68 67 68 69 70 71 72 73 73 72 70 72 71 70 70
32 38 39 39 38 36 44 36 51 56 58 59 59 59 59 60 61 62 62 63 63 62 63 63 64 66 66 66 66 66 65 64 66 67 67 68 70 70 72 71 72 69 72 70 68 71 71 70 68
32 39 39 40 39 37 41 38 39 54 55 57 59 59 59 60 60 61 62 63 63 63 63 64 66 66 67 66 66 66 66 66 67 68 68 68 69 71 72 73 68 67 69 68 69 71 70 70 69
37 38 33 31 35 33 36 36 34 50 52 55 57 59 60 60 60 61 62 63 63 64 64 65 66 66 66 67 67 67 66 66 66 67 67 68 69 70 71 72 69 68 69 69 71 70 69 69 68
34 33 30 28 29 30 33 36 34 41 50 53 55 57 59 60 60 61 62 63 63 63 63 64 65 65 66 66 67 67 67 67 67 67 68 68 68 68 71 72 70 71 70 71 70 69 68 65 64
31 31 30 27 25 23 35 35 33 41 45 51 54 56 58 59 60 60 61 62 63 63 64 64 64 65 66 66 66 68 68 67 67 68 68 68 69 71 72 72 72 71 71 68 66 64 64 62 61
29 32 32 28 27 27 27 29 30 45 45 50 52 54 57 58 59 60 61 62 63 64 64 64 64 65 66 66 67 68 68 68 67 68 70 70 72 71 72 72 71 70 66 64 62 61 60 60 60
27 28 26 27 28 26 26 26 27 39 43 46 49 53 56 58 58 59 61 62 63 63 64 64 65 65 66 66 67 68 68 69 69 70 70 71 72 72 72 69 66 64 62 60 59 57 57 59 59
25 24 25 26 27 26 25 26 30 38 44 45 47 51 55 57 57 58 60 62 63 63 64 64 64 65 66 66 67 68 69 69 70 70 71 72 72 73 69 64 61 58 57 56 56 56 57 57 58
22 23 24 25 23 25 25 25 30 37 44 45 46 51 53 55 56 58 60 61 63 63 64 64 64 65 66 67 67 68 70 71 71 71 72 72 72 69 63 60 57 56 55 54 54 54 56 57 57